Location: Unspecified
(47.9110°N, 14.3980°E)
Time: 05:24:44
(UTC+00:00)

Cosmos 1140 Rocket - Pass Details

Date: 06 August 2020
Orbit: 745 x 767 km, 74.1° (Epoch: 19 September)

Event Time Altitude Azimuth Distance (km) Brightness Sun altitude
Exits shadow 20:25:26 - 194° (SSW) 2,432 5.8 -16.1°
Reaches altitude 10° 20:25:47 10° 194° (SSW) 2,297 5.6 -16.2°
Maximum altitude 20:30:59 75° 110° (ESE) 796 3.4 -16.7°
Drops below altitude 10° 20:36:15 10° 25° (NNE) 2,316 6.3 -17.3°
Sets 20:38:38 0° 24° (NNE) 3,246 7.1 -17.5°
